Location: Newark
(34.7000°S, 31.1997°W)
Time: 06:11:49
(UTC+00:00)

N. Korean satellite - Visible Passes

Search period start: 08 April 2020 00:00
Search period end: 18 April 2020 00:00
Orbit: 454 x 507 km, 97.2° (Epoch: 07 April)

Date Brightness Start Highest point End Pass type
(mag) Time Alt. Az. Time Alt. Az. Time Alt. Az.
08 Apr 6.5 07:15:45 10° N 07:19:15 64° W 07:22:53 10° SSW visible
08 Apr 8.8 20:18:50 10° S 20:22:12 31° WSW 20:25:32 10° NW visible
09 Apr 7.4 06:50:14 10° NNE 06:53:41 52° ESE 06:57:15 10° S visible
10 Apr 9.0 06:25:20 10° NE 06:28:13 23° ESE 06:31:10 10° SSE visible
11 Apr 10.0 06:01:41 10° E 06:02:51 11° ESE 06:04:01 10° SE visible
11 Apr 7.1 07:32:30 10° NNW 07:35:48 36° W 07:39:12 10° SSW visible
11 Apr 9.6 20:35:52 10° SSW 20:38:36 19° WSW 20:41:19 10° WNW visible
12 Apr 6.5 07:06:35 10° NNE 07:10:09 87° WNW 07:13:52 10° SSW visible
12 Apr 8.2 20:09:36 10° S 20:13:10 40° WSW 20:16:40 10° NW visible
13 Apr 8.0 06:41:16 10° NE 06:44:37 38° ESE 06:48:05 10° S visible
14 Apr 9.4 06:16:38 10° ENE 06:19:11 18° ESE 06:21:46 10° SSE visible
14 Apr 7.8 07:49:33 10° NNW 07:52:22 21° W 07:55:16 10° SW visible
14 Apr 10.0 20:53:27 10° SW 20:54:57 12° WSW 20:56:27 10° W visible
15 Apr 6.8 07:23:10 10° N 07:26:39 48° W 07:30:16 10° SSW visible
15 Apr 9.2 20:26:29 10° SSW 20:29:35 24° WSW 20:32:37 10° NW visible
16 Apr 6.9 06:57:28 10° NNE 07:01:03 69° ESE 07:04:46 10° S visible
16 Apr 7.6 20:00:25 10° S 20:04:06 54° WSW 20:07:42 10° NNW visible
17 Apr 8.6 06:32:21 10° NE 06:35:32 30° ESE 06:38:49 10° SSE visible
